Find Shikongxing 01

NORAD ID: 65712 Int'l Des: 2025-214 Owner: PKU Country: CN operational
LEOCIRCULAR

Live-Position

3D-Globus wird geladen...

Über Shikongxing 01

Beschreibung wird geladen...

Nächste Überflüge

Passes for default location (London). Set your location on the main map for personalized predictions.

Höhenverlauf

Loading altitude history...

Zweizeiliger Elementsatz

1 65712U 25214A 26104.39630786 .00001331 00000-0 15163-3 0 9997
2 65712 49.9866 233.9292 0013064 0.1659 359.9285 14.92567293 30170
Epoch: 14. Apr. 2026 • Age: 22 hours

Aktueller Status

Höhe 608.9 km
Geschwindigkeit 7.55 km/s
Subsatellitenpunkt -44.69°S, 149.35°E
Startdatum 24. Sept. 2025
Alter 0.5 years
Typ other

Technische Details

Klassifizierung Payload
Masse 40.00 kg
Trockenmasse 40.00 kg
Gesamtmasse 40.00 kg
Länge 0.50 m
Durchmesser 0.50 m
Spannweite 0.50 m
Form Box
Hersteller SDK
Bus-Typ GPS50
Phasenstatus In Orbit
Besitzer/Staat PKU/CN

Most Searched